Powrót do katalogu

MIDAS 4

AktywnyMilitariaPO
NORAD 192·PAYLOAD·🇺🇸 United States

Wystrzelony Oct 21, 1961 z Vandenberg Space Force Base

Loading…

Następne Przeloty (najbliższe 24 godziny)

TLE

ŚwieżeSource: Space-Track

Epoka: Sep 8, 2026, 08:46 UTC

1 00192U 61028A   26251.36561175  .00000020  00000-0  10742-1 0  9996
2 00192  95.8473 241.1124 0134258 246.1799 112.4929  8.67768005 55371

Śledź MIDAS 4 w czasie rzeczywistym z AllMySat

Download on the App Store